Inverness, FL

7:12 PM EDT on October 23, 2017 (GMT -0400)
Inverness

Weather History for KINF - March, 2012

Change the Weather History Date:

Thursday, March 8, 2012

  Actual Average (KBKV) Record (KBKV)
Temperature  
Mean Temperature 70 °F -  
Max Temperature 86 °F 73 °F 84 °F (1998)
Min Temperature 53 °F 49 °F 30 °F (2001)
Cooling Degree Days 4    
Growing Degree Days 20 (Base 50)    
Moisture  
Dew Point 58 °F    
Average Humidity 70    
Maximum Humidity 100    
Minimum Humidity 33    
Precipitation  
Precipitation 0.00 in - - ()
Sea Level Pressure  
Sea Level Pressure 30.25 in    
Wind  
Wind Speed 2 mph ()    
Max Wind Speed 12 mph    
Max Gust Speed 9 mph    
Visibility 9.0 miles    
Events      
Averages and records for this station are not official NWS values.
T = Trace of Precipitation, MM = Missing Value Source: Averaged Metar Reports

Daily Weather History Graph

Daily Weather History Graph

Search for Another Location

Airport or City:

Trip Planner

Search our weather history database for the weather conditions in past years. The results will help you decide how hot, cold, wet, or windy it might be!

Date:

Astronomy

Mar. 08, 2012 Rise Set
Actual Time 6:46 AM EST 6:33 PM EST
Civil Twilight 6:22 AM EST 6:57 PM EST
Nautical Twilight 5:55 AM EST 7:24 PM EST
Astronomical Twilight 5:27 AM EST 7:52 PM EST
Moon 7:11 PM EST (3/8) 6:35 AM EST (3/8)
Length of Visible Light 12h 34m
Length of Day
11h 47m
Full, 100% of the Moon is Illuminated
Mar 8
Full
Mar 14
Last Quarter
Mar 22
New
Mar 30
First Quarter
Apr 6
Full

Hourly Weather History & Observations

Time (EST) Temp. Heat Index Dew Point Humidity Pressure Visibility Wind Dir Wind Speed Gust Speed Precip Events Conditions
12:35 AM 57.2 °F - 55.4 °F 94% 30.32 in 10.0 mi Calm Calm - N/A   Clear
12:55 AM 59.0 °F - 55.4 °F 88% 30.32 in 10.0 mi Calm Calm - N/A   Clear
1:15 AM 59.0 °F - 55.4 °F 88% 30.32 in 10.0 mi Calm Calm - N/A   Clear
1:35 AM 57.2 °F - 53.6 °F 88% 30.31 in 1.8 mi Calm Calm - N/A   Mist
2:15 AM 55.4 °F - 53.6 °F 94% 30.30 in 10.0 mi Calm Calm - N/A   Clear
2:35 AM 57.2 °F - 55.4 °F 94% 30.29 in 7.0 mi Calm Calm - N/A   Clear
2:55 AM 55.4 °F - 55.4 °F 100% 30.29 in 7.0 mi Calm Calm - N/A   Scattered Clouds
3:55 AM 55.4 °F - 55.4 °F 100% 30.28 in 7.0 mi Calm Calm - N/A   Clear
4:15 AM 55.4 °F - 55.4 °F 100% 30.28 in 7.0 mi Calm Calm - N/A   Scattered Clouds
4:35 AM 53.6 °F - 53.6 °F 100% 30.28 in 5.0 mi Calm Calm - N/A   Scattered Clouds
4:55 AM 55.4 °F - 55.4 °F 100% 30.28 in 5.0 mi Calm Calm - N/A   Mostly Cloudy
5:15 AM 55.4 °F - 55.4 °F 100% 30.29 in 10.0 mi Calm Calm - N/A   Mostly Cloudy
5:35 AM 55.4 °F - 53.6 °F 94% 30.29 in 7.0 mi Calm Calm - N/A   Scattered Clouds
5:55 AM 57.2 °F - 55.4 °F 94% 30.29 in 7.0 mi Calm Calm - N/A   Scattered Clouds
6:15 AM 55.4 °F - 55.4 °F 100% 30.30 in 7.0 mi Calm Calm - N/A   Scattered Clouds
6:35 AM 55.4 °F - 53.6 °F 94% 30.30 in 7.0 mi Calm Calm - N/A   Scattered Clouds
6:55 AM 55.4 °F - 55.4 °F 100% 30.30 in 4.0 mi Calm Calm - N/A   Scattered Clouds
7:15 AM 55.4 °F - 55.4 °F 100% 30.31 in 5.0 mi Calm Calm - N/A   Scattered Clouds
7:35 AM 59.0 °F - 59.0 °F 100% 30.31 in 7.0 mi Calm Calm - N/A   Scattered Clouds
7:55 AM 60.8 °F - 60.8 °F 100% 30.32 in 7.0 mi Calm Calm - N/A   Clear
8:15 AM 62.6 °F - 60.8 °F 94% 30.32 in 7.0 mi Calm Calm - N/A   Clear
8:35 AM 66.2 °F - 62.6 °F 88% 30.32 in 10.0 mi East 4.6 mph - N/A   Clear
8:55 AM 69.8 °F - 62.6 °F 78% 30.32 in 10.0 mi ESE 4.6 mph - N/A   Clear
9:15 AM 71.6 °F - 62.6 °F 73% 30.33 in 10.0 mi ESE 6.9 mph - N/A   Clear
9:35 AM 73.4 °F - 62.6 °F 69% 30.33 in 10.0 mi SE 11.5 mph - N/A   Scattered Clouds
9:55 AM 75.2 °F - 62.6 °F 65% 30.32 in 10.0 mi ESE 10.4 mph - N/A   Scattered Clouds
10:15 AM 77.0 °F - 62.6 °F 61% 30.32 in 10.0 mi ESE 9.2 mph - N/A   Scattered Clouds
10:35 AM 77.0 °F - 62.6 °F 61% 30.32 in 10.0 mi SE 6.9 mph - N/A   Mostly Cloudy
10:55 AM 77.0 °F - 60.8 °F 57% 30.31 in 7.0 mi SE 9.2 mph - N/A   Mostly Cloudy
11:15 AM 78.8 °F - 59.0 °F 51% 30.31 in 10.0 mi ESE 6.9 mph - N/A   Scattered Clouds
11:35 AM 80.6 °F 81.1 °F 59.0 °F 48% 30.30 in 10.0 mi ENE 5.8 mph - N/A   Scattered Clouds
11:55 AM 80.6 °F 81.1 °F 59.0 °F 48% 30.29 in 10.0 mi SE 10.4 mph - N/A   Mostly Cloudy
12:15 PM 80.6 °F 81.1 °F 59.0 °F 48% 30.28 in 10.0 mi ENE 5.8 mph 9.2 mph N/A   Scattered Clouds
12:35 PM 82.4 °F 81.7 °F 55.4 °F 39% 30.27 in 10.0 mi SE 10.4 mph - N/A   Scattered Clouds
1:15 PM 82.4 °F 81.7 °F 55.4 °F 39% 30.24 in 10.0 mi ESE 5.8 mph - N/A   Scattered Clouds
1:35 PM 82.4 °F 81.7 °F 55.4 °F 39% 30.23 in 10.0 mi SE 3.5 mph - N/A   Scattered Clouds
1:55 PM 84.2 °F 82.8 °F 53.6 °F 35% 30.22 in 10.0 mi South 8.1 mph - N/A   Mostly Cloudy
2:15 PM 86.0 °F 84.5 °F 55.4 °F 35% 30.21 in 10.0 mi ESE 6.9 mph - N/A   Scattered Clouds
2:35 PM 84.2 °F 82.8 °F 53.6 °F 35% 30.20 in 10.0 mi SSE 4.6 mph - N/A   Clear
2:55 PM 82.4 °F 81.4 °F 53.6 °F 37% 30.19 in 10.0 mi SE 4.6 mph - N/A   Clear
3:15 PM 82.4 °F 81.4 °F 53.6 °F 37% 30.18 in 10.0 mi Calm Calm - N/A   Scattered Clouds
3:35 PM 82.4 °F 81.4 °F 53.6 °F 37% 30.17 in 10.0 mi East 4.6 mph - N/A   Scattered Clouds
3:55 PM 86.0 °F 84.2 °F 53.6 °F 33% 30.17 in 10.0 mi ESE 8.1 mph - N/A   Scattered Clouds
4:15 PM 84.2 °F 82.8 °F 53.6 °F 35% 30.16 in 10.0 mi SSE 6.9 mph - N/A   Scattered Clouds
4:35 PM 84.2 °F 82.8 °F 53.6 °F 35% 30.16 in 10.0 mi Calm Calm - N/A   Clear
4:55 PM 84.2 °F 82.8 °F 53.6 °F 35% 30.17 in 10.0 mi East 5.8 mph - N/A   Scattered Clouds
5:15 PM 82.4 °F 81.7 °F 55.4 °F 39% 30.17 in 10.0 mi SE 6.9 mph - N/A   Mostly Cloudy
5:35 PM 80.6 °F 80.5 °F 55.4 °F 42% 30.17 in 10.0 mi East 5.8 mph - N/A   Mostly Cloudy
5:55 PM 78.8 °F - 57.2 °F 47% 30.17 in 10.0 mi East 4.6 mph - N/A   Scattered Clouds
6:15 PM 78.8 °F - 59.0 °F 51% 30.18 in 10.0 mi Calm Calm - N/A   Scattered Clouds
6:35 PM 77.0 °F - 59.0 °F 54% 30.18 in 10.0 mi ESE 4.6 mph - N/A   Scattered Clouds
6:55 PM 77.0 °F - 60.8 °F 57% 30.18 in 10.0 mi SE 5.8 mph - N/A   Clear
7:15 PM 75.2 °F - 60.8 °F 61% 30.19 in 10.0 mi SE 9.2 mph - N/A   Clear
7:35 PM 73.4 °F - 60.8 °F 65% 30.20 in 10.0 mi SE 5.8 mph - N/A   Clear
7:55 PM 73.4 °F - 62.6 °F 69% 30.20 in 10.0 mi ESE 8.1 mph - N/A   Clear
8:15 PM 73.4 °F - 62.6 °F 69% 30.21 in 10.0 mi SE 4.6 mph - N/A   Clear
8:35 PM 71.6 °F - 62.6 °F 73% 30.22 in 10.0 mi SE 6.9 mph - N/A   Clear
8:55 PM 71.6 °F - 62.6 °F 73% 30.22 in 10.0 mi SSE 5.8 mph - N/A   Mostly Cloudy
9:15 PM 71.6 °F - 62.6 °F 73% 30.22 in 10.0 mi SE 4.6 mph - N/A   Mostly Cloudy
9:35 PM 71.6 °F - 62.6 °F 73% 30.22 in 10.0 mi SE 4.6 mph - N/A   Mostly Cloudy
9:55 PM 69.8 °F - 64.4 °F 83% 30.22 in 10.0 mi SSE 5.8 mph - N/A   Mostly Cloudy
10:15 PM 69.8 °F - 64.4 °F 83% 30.23 in 10.0 mi Calm Calm - N/A   Overcast
10:35 PM 69.8 °F - 64.4 °F 83% 30.23 in 10.0 mi Calm Calm - N/A   Mostly Cloudy
10:55 PM 68.0 °F - 62.6 °F 83% 30.23 in 10.0 mi Calm Calm - N/A   Scattered Clouds
11:15 PM 68.0 °F - 64.4 °F 88% 30.22 in 10.0 mi Calm Calm - N/A   Mostly Cloudy
11:35 PM 68.0 °F - 64.4 °F 88% 30.22 in 10.0 mi Calm Calm - N/A   Overcast
11:55 PM 66.2 °F - 64.4 °F 94% 30.21 in 10.0 mi Calm Calm - N/A   Overcast